Date,TemperatureHighF,TemperatureAvgF,TemperatureLowF,DewpointHighF,DewpointAvgF,DewpointLowF,HumidityHigh,HumidityAvg,HumidityLow,PressureMaxIn,PressureMinIn,WindSpeedMaxMPH,WindSpeedAvgMPH,GustSpeedMaxMPH,PrecipitationSumIn
2012-1-1,48.2,45.5,39.4,22.5,19.3,16.5,40,35,30,30.21,30.00,17,8,17,0.00
2012-1-2,53.1,49.9,47.5,37.7,26.4,18.2,68,41,27,30.00,29.71,28,16,28,0.00
2012-1-3,51.3,50.1,49.6,36.3,32.8,28.4,60,51,43,30.09,30.00,23,17,24,0.04
2012-1-4,50.0,49.0,46.9,44.9,40.0,35.3,92,71,58,29.94,29.80,23,16,25,0.28
2012-1-5,45.0,42.9,41.9,27.6,25.2,21.3,53,49,44,30.18,30.12,13,5,13,0.00
2012-1-11,43.3,40.8,35.1,14.6,9.1,4.7,42,28,20,30.36,30.30,6,2,8,0.00
2012-1-12,38.5,37.0,33.8,20.8,16.7,12.2,49,43,40,30.33,30.21,4,0,4,0.00
2012-1-13,42.8,40.4,36.1,33.7,25.4,21.3,84,56,43,30.21,29.97,6,1,7,0.00
2012-1-14,40.3,35.8,33.8,38.1,23.8,19.2,98,62,43,29.85,29.74,14,5,16,0.71
2012-1-15,38.5,33.2,30.0,28.2,21.2,15.2,79,62,41,29.97,29.85,10,2,10,0.00
2012-1-16,35.8,33.4,30.0,30.8,24.2,16.6,89,70,50,30.00,29.88,16,6,16,0.04
2012-1-17,36.9,32.2,29.5,26.1,18.5,8.0,72,57,38,29.85,29.68,10,1,13,0.16
2012-1-18,30.7,24.3,19.4,22.9,10.6,3.4,80,56,44,29.85,29.59,24,3,24,0.00
2012-1-19,29.7,26.0,23.4,20.1,11.2,6.5,67,53,43,29.71,29.50,13,1,13,0.00
2012-1-20,46.9,38.1,29.7,43.2,32.6,20.1,98,81,56,29.68,28.85,34,14,34,0.24
2012-1-21,47.3,42.3,38.1,42.6,29.5,20.7,94,61,44,29.74,28.85,25,9,26,0.04
2012-1-22,44.2,41.6,39.2,37.8,27.6,18.9,86,59,39,29.74,29.23,33,17,35,0.04
2012-1-23,48.7,42.5,37.9,36.8,28.5,20.2,88,60,37,29.88,29.68,23,10,23,0.00
2012-1-24,48.2,44.5,41.2,47.2,29.6,16.4,97,58,32,29.85,29.38,37,18,40,0.12
2012-1-25,45.0,43.1,41.0,38.5,27.2,20.1,88,54,39,30.12,29.68,25,8,32,0.04
2012-1-26,45.1,44.5,43.2,37.0,34.0,26.7,75,67,52,29.83,29.74,20,12,20,0.04
2012-1-27,47.1,41.3,37.6,25.3,20.4,15.9,55,43,31,30.50,30.39,12,6,12,0.00
2012-1-28,38.3,37.9,37.8,21.7,20.9,19.2,52,50,46,30.39,30.33,8,6,8,0.00
2012-6-18,60.6,60.4,60.3,39.2,38.2,37.1,45,44,43,29.83,29.83,8,5,9,0.00
2012-6-26,63.5,56.6,52.0,32.6,30.6,26.6,47,37,25,29.94,29.88,17,9,20,0.00
2012-6-27,76.6,61.4,50.2,43.5,33.7,23.4,72,40,15,29.97,29.80,6,2,6,0.00
2012-6-28,73.2,58.6,51.6,46.3,37.0,28.5,71,47,22,29.85,29.77,9,2,9,0.00
2012-6-29,74.3,61.5,54.9,47.0,41.3,33.4,70,50,24,29.94,29.85,14,7,14,0.04
2012-6-30,65.7,58.4,54.7,59.7,48.4,37.6,94,71,48,31.01,17.72,6,1,8,0.12
2012-7-1,70.5,59.0,52.7,47.2,36.7,28.6,77,46,23,17.72,17.72,15,5,15,0.00
2012-7-2,61.2,55.0,51.8,46.8,37.4,31.3,82,52,34,17.72,17.72,7,2,7,0.20
2012-7-3,66.2,55.6,50.7,54.3,42.7,30.5,96,66,33,17.72,17.72,26,4,26,0.55
2012-7-4,73.8,59.7,49.8,46.1,34.4,25.1,77,43,18,17.72,17.72,11,2,13,0.00
2012-7-5,75.6,58.2,48.7,46.7,36.6,29.0,78,50,18,17.72,17.72,6,3,6,0.00
2012-7-11,70.5,62.4,53.1,45.3,37.6,33.3,68,41,26,17.72,17.72,8,4,8,0.00
2012-7-12,71.6,58.5,52.3,50.6,42.2,33.2,86,58,26,17.72,17.72,8,4,8,0.00
2012-7-13,73.2,60.1,54.0,57.3,47.2,38.0,84,66,30,17.72,17.72,9,2,10,0.08
2012-7-15,68.0,60.1,55.2,52.1,45.3,38.5,84,60,36,17.72,17.72,9,2,9,0.00
2012-7-16,79.0,62.2,52.3,58.7,45.2,34.0,95,61,21,17.72,17.72,9,2,9,0.00
2012-7-17,79.2,58.7,53.4,51.1,44.2,32.3,84,62,21,17.72,17.72,8,3,8,0.00
2012-9-10,67.8,59.5,52.9,35.3,28.1,22.3,51,32,20,30.09,17.72,14,4,15,0.00
2012-9-11,69.3,56.8,48.7,44.4,29.8,13.5,68,40,13,30.24,30.09,6,1,8,0.00
2012-9-12,50.9,49.9,48.7,29.9,28.6,25.9,48,44,38,30.21,30.21,3,1,3,0.00
2012-10-4,69.1,59.7,51.3,25.4,15.2,11.3,36,18,12,30.21,30.15,6,1,7,0.00
2012-10-5,71.4,55.4,46.6,37.4,25.0,13.7,59,34,12,30.21,30.09,6,1,6,0.00
2012-10-6,68.9,55.5,47.3,38.8,27.7,19.3,67,36,20,30.15,30.03,4,1,5,0.00
2012-10-7,68.7,55.2,47.5,37.4,29.5,23.7,63,39,20,30.03,29.80,5,1,5,0.00
2012-10-8,70.3,55.0,47.3,42.2,32.0,25.2,73,44,19,29.88,29.80,8,1,8,0.00
2012-10-12,55.0,53.2,50.4,51.4,46.6,39.5,94,79,56,29.85,29.74,14,9,15,0.20
2012-10-13,57.2,55.1,52.7,55.3,50.8,47.1,98,86,69,29.97,29.85,14,8,15,0.31
2012-10-14,59.2,56.3,52.9,53.4,49.2,40.4,93,78,50,29.91,29.71,31,11,31,0.20
2012-10-15,57.6,53.5,48.6,56.5,49.9,39.4,98,88,53,29.83,29.35,20,6,20,0.31
2012-10-16,57.9,51.3,47.7,51.1,38.1,26.9,98,63,31,30.15,29.41,26,6,26,0.04
2012-10-17,59.4,50.8,45.7,45.5,35.5,26.2,86,58,29,30.21,30.09,11,2,11,0.00
2012-10-18,54.5,50.7,48.0,49.5,38.6,26.4,95,65,34,30.09,29.62,17,5,18,0.39
2012-10-19,54.5,51.3,45.3,51.6,39.6,26.9,95,67,37,29.68,29.59,17,4,17,0.04
2012-10-20,55.2,45.6,41.5,44.9,33.9,21.0,97,67,29,29.77,29.65,17,5,19,0.20
2012-10-21,51.6,44.7,43.0,43.0,34.0,24.9,96,67,37,29.77,29.71,17,10,20,0.08
2012-11-9,49.6,41.9,37.9,12.8,8.1,4.1,30,25,16,29.85,29.77,10,2,10,0.00
2012-11-10,46.4,38.7,36.1,17.9,6.7,0.3,47,27,17,30.12,29.85,10,2,10,0.00
2012-11-11,46.6,42.0,36.1,39.0,24.0,13.7,80,50,30,30.12,29.91,29,15,29,0.24
2012-11-12,50.2,47.9,46.4,43.8,39.7,35.4,84,73,63,30.06,29.91,22,9,22,0.00
2012-11-13,51.6,48.6,47.3,48.5,44.8,42.2,95,87,73,30.09,30.00,13,5,13,0.20
2012-11-14,52.9,46.6,42.3,47.9,40.7,30.3,96,81,45,30.21,30.06,4,0,4,0.00
2012-11-15,42.6,42.5,42.4,39.6,39.5,39.4,89,89,89,30.18,30.18,0,0,0,0.00
2012-11-17,51.6,46.2,45.0,42.5,36.4,28.8,86,70,47,29.53,29.35,27,11,27,0.43
2012-11-18,49.3,47.6,45.9,32.9,29.2,25.7,57,49,40,29.59,29.32,37,21,39,0.00
2012-11-26,46.9,40.4,38.7,23.7,20.6,15.1,53,45,29,29.97,29.94,2,0,3,0.00
2012-11-27,48.4,41.5,38.3,31.1,24.2,19.4,71,51,33,29.97,29.80,11,3,11,0.00
2012-11-28,50.9,44.5,39.9,39.6,32.1,26.7,73,62,42,29.80,29.47,26,5,27,0.00
2012-11-29,53.4,51.1,48.7,39.3,31.6,27.5,68,47,37,29.56,29.29,28,15,28,0.00
2012-11-30,52.3,50.9,49.3,42.2,34.0,27.8,72,53,40,29.29,29.18,32,18,32,0.04
2012-12-1,51.3,49.2,47.3,41.8,32.3,23.2,80,53,34,29.44,29.18,28,18,28,0.08
2012-12-2,48.7,46.5,43.3,43.5,35.6,26.5,95,69,42,29.23,29.03,20,8,20,0.16
2012-12-15,42.1,40.6,39.2,39.1,28.7,19.0,95,65,41,29.53,29.38,35,17,38,0.16
2012-12-16,45.0,40.5,38.1,37.2,31.5,23.3,92,71,49,29.59,28.82,33,15,33,0.12
2012-12-17,45.1,39.7,35.6,40.5,29.8,16.5,98,69,39,29.74,28.79,24,7,26,0.28
2012-12-18,43.7,38.5,36.1,35.3,24.7,18.5,87,58,39,29.83,29.74,23,11,24,0.08
2012-12-19,43.3,40.5,38.3,33.2,25.6,19.7,74,55,45,29.77,29.41,36,24,36,0.04
2012-12-20,44.6,42.3,41.0,36.0,28.3,23.2,75,58,47,29.68,29.35,24,15,24,0.00
2012-12-21,41.7,40.6,39.0,25.5,24.6,23.0,57,53,47,29.68,29.65,20,13,20,0.00
2012-12-29,40.6,39.7,37.4,37.7,36.9,35.0,92,89,88,30.12,30.03,10,2,10,0.04
2012-12-30,39.4,37.5,35.4,36.9,34.4,31.0,94,88,82,30.21,30.12,9,3,9,0.00
2012-12-31,38.5,36.6,35.4,36.5,32.6,0.0,95,85,77,30.36,30.15,11,2,11,0.12
2013-1-1,43.3,37.5,35.4,37.1,29.0,18.1,97,74,39,30.42,30.27,9,2,9,0.00